This is the latest recevied weather packets stored in our database for station/object KE4LOJ. If no packets are shown the sender has not sent any weather packets the latest 10 day(s).
| Time | Temp. | Humidity | Pressure | Rain* | Wind** | Luminosity | Snow |
|---|---|---|---|---|---|---|---|
| 1777376110 | 20° C | 99% | 1019.6 hPa | 0 mm | - | 31 W/m² | - |
| 1777375810 | 20° C | 99% | 1019.4 hPa | 0 mm | - | 24 W/m² | - |
| 1777375510 | 20° C | 99% | 1019.4 hPa | 0 mm | - | 21 W/m² | - |
| 1777375206 | 20° C | 99% | 1019.4 hPa | 0 mm | - | 19 W/m² | - |
| 1777374901 | 19.44° C | 99% | 1019.2 hPa | 0 mm | - | 15 W/m² | - |
| 1777374597 | 19.44° C | 99% | 1019.3 hPa | 0 mm | - | 12 W/m² | - |
| 1777374295 | 19.44° C | 99% | 1019.2 hPa | 0 mm | - | 9 W/m² | - |
| 1777373990 | 18.89° C | 99% | 1019.2 hPa | 0 mm | - | 7 W/m² | - |
| 1777373687 | 18.89° C | 99% | 1019.2 hPa | 0 mm | - | 5 W/m² | - |
| 1777373384 | 18.89° C | 99% | 1019.1 hPa | 0 mm | - | 3 W/m² | - |
| 1777373080 | 18.89° C | 99% | 1019 hPa | 0 mm | - | 2 W/m² | - |
| 1777372775 | 18.89° C | 99% | 1019.2 hPa | 0 mm | - | 1 W/m² | - |
| 1777372475 | 18.89° C | 99% | 1019.1 hPa | 0 mm | - | 0 W/m² | - |
| 1777372173 | 18.89° C | 99% | 1019.1 hPa | 0 mm | - | 0 W/m² | - |
| 1777371869 | 18.89° C | 99% | 1019.2 hPa | 0 mm | - | 0 W/m² | - |
| 1777371566 | 18.33° C | 99% | 1019.1 hPa | 0 mm | - | 0 W/m² | - |
| 1777371262 | 18.33° C | 99% | 1019.2 hPa | 0 mm | - | 0 W/m² | - |
| 1777370958 | 18.33° C | 99% | 1019 hPa | 0 mm | - | 0 W/m² | - |
| 1777370654 | 18.33° C | 99% | 1019.1 hPa | 0 mm | - | 0 W/m² | - |
| 1777370351 | 18.33° C | 99% | 1018.8 hPa | 0 mm | - | 0 W/m² | - |
| 1777370047 | 18.33° C | 99% | 1019.1 hPa | 0 mm | - | 0 W/m² | - |
| 1777369744 | 18.33° C | 99% | 1018.7 hPa | 0 mm | - | 0 W/m² | - |
| 1777369443 | 18.33° C | 99% | 1018.6 hPa | 0 mm | - | 0 W/m² | - |
| 1777369140 | 18.33° C | 99% | 1018.8 hPa | 0 mm | - | 0 W/m² | - |
| 1777368838 | 18.33° C | 99% | 1018.8 hPa | 0 mm | - | 0 W/m² | - |
* Rain latest hour (hover to see other rain measurements)
** Current wind speed in m/s (hover to see current wind gust speed)